Powrót do katalogu

YAOGAN 34-04

AktywnyMilitariaLEO
NORAD 56157·PAYLOAD·🇨🇳 China
Ta nazwa satelity nie została jeszcze potwierdzona przez oficjalne źródła.

Wystrzelony Mar 31, 2023 z Jiuquan Satellite Launch Center

Loading…

Następne Przeloty (najbliższe 24 godziny)

TLE

ŚwieżeSource: Space-Track

Epoka: Sep 14, 2026, 15:39 UTC

1 56157U 23048A   26257.65246721 -.00000066  00000-0  39471-4 0  9997
2 56157  63.3997 228.5578 0075079 356.0836   3.9593 13.45394730169979

Śledź YAOGAN 34-04 w czasie rzeczywistym z AllMySat

Download on the App Store